Location: Oberkirch
(48.5323°N, 8.0787°E)
Time: 21:14:09
(UTC+00:00)

Tiros 1 - Pass Details

Date: 24 February 2026
Orbit: 618 x 649 km, 48.4° (Epoch: 7 March)

Event Time Altitude Azimuth Distance (km) Brightness Sun altitude
Rises 12:13:19 0° 280° (W) 2,898 10.5 31.7°
Reaches altitude 10° 12:16:26 10° 258° (WSW) 1,984 10.0 31.6°
Maximum altitude 12:19:06 15° 222° (SW) 1,649 10.4 31.5°
Drops below altitude 10° 12:21:45 10° 186° (S) 1,973 11.2 31.4°
Sets 12:24:51 0° 164° (SSE) 2,873 11.3 31.3°
